[[{"header":{"parameterUnit":"m.s-1","parameterCategory":2,"la1":30.2991,"la2":30.254,"lo1":-89.0895,"lo2":-89.0444,"dy":0.0017,"dx":0.0017,"nx":28,"ny":28,"refTime":"2023-10-14T09:00:00:Z","depth":"0","parameterNumber":2,"parameterNumberName":"U-component_of_CURRENTS"},"data":[0,0,0,0,0,0,0,0,0,0,0,0,0,0,0,0,0,0,0,0,0,0,0,0,0,0,0,0,0,0,0,0,0,0,0,0,0,0,0,0,0,0,0,0,0,0,0,0,0,0,0,0,0,0,0,0,0,0,0.1523,0.1524,0,0.162,0.1621,0.1623,0.1639,0.1638,0.1637,0.1636,0.1674,0.1675,0.1677,0,0,0,0,0,0,0,0,0,0,0,0,0,0.1389,0.1391,0.1523,0.1524,0.1525,0.162,0.1621,0.1623,0.1639,0.1638,0.1637,0.1636,0.1673,0.1675,0.1677,0,0,0,0,0,0,0,0,0,0,0,0,0,0.1462,0.1392,0.1522,0.1545,0.1548,0.162,0.1622,0.1623,0.1639,0.1638,0.1637,0.1635,0.1672,0.1675,0.1678,0.1719,0,0,0.1686,0.1687,0,0,0,0,0,0,0,0,0.1458,0.1467,0.154,0.1543,0.1547,0.1616,0.1588,0.1652,0.1639,0.1604,0.1636,0.1635,0.165,0.1654,0.1676,0.172,0.1722,0.1686,0.1688,0.1689,0.1689,0,0,0,0,0,0,0,0.1453,0.1463,0.1561,0.1542,0.1546,0.1563,0.1572,0.1601,0.1631,0.1607,0.1609,0.162,0.1651,0.1674,0.1677,0.1723,0.1686,0.1688,0.169,0.1691,0.1819,0.182,0,0,0,0,0,0,0.1441,0.1459,0.1558,0.1564,0.1499,0.1567,0.1576,0.1595,0.1633,0.1638,0.1621,0.1621,0.167,0.1674,0.1678,0.1734,0.1689,0.1691,0.1693,0.1817,0.1819,0.1821,0,0,0,0,0,0,0.1438,0.145,0.1554,0.1513,0.1527,0.157,0.1591,0.1598,0.1622,0.1644,0.1647,0.1639,0.1669,0.1674,0.1722,0.1735,0.1692,0.1695,0.1815,0.1818,0.182,0.1843,0,0,0,0,0,0,0.1434,0.1448,0.1459,0.1513,0.1529,0.1602,0.1592,0.16,0.1631,0.1632,0.1661,0.1663,0.1668,0.1718,0.1724,0.1738,0.1697,0.1812,0.1816,0.1819,0.184,0.1846,0.1851,0,0,0,0,0,0.1429,0.1454,0.146,0.1472,0.1543,0.1604,0.1615,0.1639,0.1633,0.1655,0.168,0.1662,0.1743,0.1722,0.1729,0.1744,0.1811,0.1815,0.1819,0.1837,0.1845,0.1851,0,0,0,0,0,0,0.1399,0.1459,0.1467,0.1507,0.1552,0.1606,0.1631,0.1646,0.1685,0.1683,0.1693,0.1699,0.1745,0.175,0.1727,0.1793,0.1771,0.1777,0.1783,0.179,0.1796,0.179,0.1699,0,0,0,0,0,0.1398,0.1434,0.1488,0.152,0.1543,0.1587,0.1613,0.1634,0.1674,0.169,0.171,0.1735,0.1771,0.1783,0.1815,0.1855,0.1871,0.1868,0.1874,0.1878,0.1881,0.1923,0.1932,0.1834,0.1834,0.1834,0,0,0.1395,0.1433,0.1453,0.1516,0.1552,0.1598,0.16,0.1648,0.1683,0.1688,0.1738,0.1761,0.1789,0.1836,0.1854,0.1837,0.1921,0.1884,0.1887,0.1887,0.1928,0.1937,0.1945,0.1837,0.1837,0.1836,0,0,0.1412,0.1442,0.1478,0.1518,0.1576,0.1609,0.1623,0.1682,0.1704,0.176,0.1772,0.1807,0.1856,0.188,0.1897,0.1957,0.1955,0.1962,0.1979,0.202,0.2027,0.2034,0.2085,0.2096,0.1957,0.1958,0.1958,0,0.1402,0.1457,0.1497,0.1541,0.1572,0.1614,0.1654,0.1696,0.176,0.178,0.1776,0.186,0.1878,0.1935,0.1955,0.1967,0.1994,0.1946,0.2025,0.2032,0.2039,0.2089,0.2101,0.1959,0.1959,0.1959,0.1959,0,0.1451,0.149,0.1517,0.1584,0.1622,0.1668,0.1722,0.1761,0.1785,0.1819,0.1879,0.1915,0.1956,0.197,0.1981,0.2039,0.2047,0.2031,0.2001,0.205,0.21,0.2113,0.1961,0.1961,0.196,0.196,0,0,0.1446,0.1532,0.1542,0.1568,0.1646,0.1682,0.1741,0.1805,0.184,0.189,0.1937,0.1994,0.2002,0.2024,0.204,0.2073,0.2149,0.2072,0.2073,0.2111,0.2254,0.2292,0.2308,0.2145,0.2147,0.2148,0.2275,0,0.1472,0.1542,0.1584,0.1648,0.1685,0.1732,0.1783,0.184,0.1886,0.1945,0.1981,0.2037,0.2027,0.205,0.2082,0.2141,0.218,0.2117,0.221,0.2214,0.2231,0.2323,0.2325,0.2441,0.2287,0.2289,0.229,0,0.1509,0.155,0.1605,0.167,0.1691,0.1729,0.18,0.1853,0.1938,0.1976,0.2026,0.2064,0.2136,0.2113,0.2221,0.2183,0.2221,0.2255,0.226,0.2294,0.2274,0.2366,0.2469,0.2446,0.2309,0.2308,0.2306,0,0.1482,0.1565,0.16,0.1626,0.1707,0.1729,0.1773,0.1852,0.1908,0.1996,0.2051,0.2121,0.2183,0.2231,0.2309,0.227,0.2432,0.2382,0.2453,0.2456,0.2475,0.2477,0.2556,0.2454,0.2454,0.2454,0.2453,0,0.1494,0.1525,0.1585,0.1605,0.1645,0.1704,0.176,0.1815,0.1916,0.1992,0.2058,0.2144,0.2218,0.2317,0.2348,0.2465,0.2466,0.2486,0.2501,0.2487,0.2488,0.2481,0.2439,0.2459,0.2458,0.2457,0.2456,0,0.1457,0.1505,0.1541,0.1608,0.163,0.165,0.1751,0.1803,0.19,0.2005,0.2043,0.2196,0.2337,0.2419,0.2534,0.2542,0.2581,0.2656,0.2646,0.2657,0.2673,0.2632,0.2578,0.2493,0.275,0.2752,0.2753,0,0.1443,0.1457,0.1515,0.1536,0.1562,0.1614,0.166,0.1773,0.1846,0.2038,0.2098,0.2279,0.2424,0.2631,0.2697,0.2799,0.2678,0.2821,0.2737,0.2708,0.2673,0.2498,0.2415,0.278,0.2782,0.2783,0.2784,0,0.1403,0.1418,0.1447,0.1487,0.1527,0.1584,0.1664,0.1726,0.1873,0.1994,0.2181,0.2319,0.2564,0.2715,0.2859,0.2892,0.2718,0.285,0.2824,0.2721,0.2531,0.2446,0.2662,0.2796,0.2795,0.2794,0.2793,0.2793,0.1361,0.1365,0.1405,0.1443,0.149,0.155,0.1591,0.1712,0.1841,0.2035,0.2192,0.242,0.2676,0.291,0.2909,0.2953,0.2823,0.2912,0.2874,0.2704,0.2589,0.2844,0.2983,0.2983,0.2983,0.2983,0.2983,0,0.1321,0.1341,0.1368,0.142,0.1455,0.1498,0.16,0.1655,0.1793,0.2022,0.2215,0.2577,0.2767,0.2913,0.3065,0.3011,0.2798,0.2938,0.2699,0.2619,0.2892,0.2863,0.2979,0.2979,0.2979,0.2979,0.2979,0.2979,0.1301,0.1317,0.1339,0.138,0.1414,0.146,0.1506,0.1601,0.1762,0.2044,0.2298,0.2527,0.2842,0.3089,0.3117,0.3035,0.2779,0.2701,0.2593,0.2835,0.2828,0.2821,0.2787,0.2885,0.2885,0.224,0.2236,0.2233]},{"header":{"parameterUnit":"m.s-1","parameterCategory":2,"la1":30.2991,"la2":30.254,"lo1":-89.0895,"lo2":-89.0444,"dy":0.0017,"dx":0.0017,"nx":28,"ny":28,"refTime":"2023-10-14T09:00:00:Z","depth":"0","parameterNumber":3,"parameterNumberName":"V-component_of_CURRENTS"},"data":[0,0,0,0,0,0,0,0,0,0,0,0,0,0,0,0,0,0,0,0,0,0,0,0,0,0,0,0,0,0,0,0,0,0,0,0,0,0,0,0,0,0,0,0,0,0,0,0,0,0,0,0,0,0,0,0,0,0,-0.0472,-0.0472,0,-0.0456,-0.0456,-0.0456,-0.0479,-0.048,-0.0481,-0.0482,-0.0433,-0.043,-0.0428,0,0,0,0,0,0,0,0,0,0,0,0,0,-0.0533,-0.0531,-0.0472,-0.0472,-0.0472,-0.0456,-0.0456,-0.0455,-0.0479,-0.048,-0.0481,-0.0482,-0.0433,-0.0431,-0.0428,0,0,0,0,0,0,0,0,0,0,0,0,0,-0.0509,-0.0531,-0.0472,-0.0482,-0.0483,-0.0456,-0.0456,-0.0455,-0.0478,-0.048,-0.0481,-0.0483,-0.0434,-0.0431,-0.0428,-0.038,0,0,-0.0418,-0.0416,0,0,0,0,0,0,0,0,-0.0511,-0.0507,-0.0481,-0.0482,-0.0482,-0.0472,-0.0459,-0.0429,-0.0478,-0.0479,-0.0482,-0.0483,-0.0442,-0.0439,-0.0431,-0.0377,-0.0375,-0.0417,-0.0416,-0.0414,-0.0413,0,0,0,0,0,0,0,-0.0512,-0.0508,-0.0464,-0.0481,-0.0482,-0.0492,-0.049,-0.0454,-0.0451,-0.0479,-0.0481,-0.0481,-0.0443,-0.0434,-0.043,-0.0374,-0.0418,-0.0415,-0.0413,-0.0411,-0.0331,-0.0331,0,0,0,0,0,0,-0.0514,-0.0509,-0.0465,-0.0464,-0.0502,-0.0489,-0.0487,-0.0473,-0.0453,-0.0451,-0.048,-0.0482,-0.0439,-0.0434,-0.0428,-0.0389,-0.0414,-0.0411,-0.0409,-0.0331,-0.0331,-0.0331,0,0,0,0,0,0,-0.0515,-0.051,-0.0465,-0.0488,-0.0484,-0.0487,-0.0471,-0.0472,-0.0472,-0.0454,-0.0452,-0.048,-0.044,-0.0433,-0.0405,-0.0387,-0.041,-0.0407,-0.0331,-0.0331,-0.0331,-0.0298,0,0,0,0,0,0,-0.0517,-0.051,-0.0493,-0.0488,-0.0482,-0.0443,-0.047,-0.0471,-0.047,-0.0473,-0.0453,-0.045,-0.0441,-0.041,-0.0402,-0.0383,-0.0404,-0.0332,-0.0331,-0.0331,-0.03,-0.0297,-0.0295,0,0,0,0,0,-0.0519,-0.0485,-0.0492,-0.0487,-0.0461,-0.0442,-0.0439,-0.0447,-0.0469,-0.0455,-0.0454,-0.0451,-0.0403,-0.0406,-0.0397,-0.0377,-0.0332,-0.0331,-0.0331,-0.0301,-0.0298,-0.0295,0,0,0,0,0,0,-0.0494,-0.0484,-0.0492,-0.0455,-0.0449,-0.0446,-0.0429,-0.0445,-0.0434,-0.0439,-0.0436,-0.0431,-0.0405,-0.0396,-0.04,-0.0357,-0.0371,-0.0368,-0.0351,-0.0348,-0.0345,-0.0337,-0.0401,0,0,0,0,0,-0.0482,-0.0456,-0.0457,-0.0424,-0.0422,-0.0429,-0.0422,-0.0431,-0.0425,-0.0423,-0.0414,-0.0406,-0.0392,-0.0376,-0.0361,-0.032,-0.0331,-0.0308,-0.0305,-0.0303,-0.0292,-0.0306,-0.0304,-0.0329,-0.0329,-0.0329,0,0,-0.0461,-0.0453,-0.0437,-0.0418,-0.0414,-0.0394,-0.0427,-0.0413,-0.0398,-0.0415,-0.0386,-0.0393,-0.0383,-0.0352,-0.0339,-0.034,-0.0302,-0.0302,-0.03,-0.029,-0.0305,-0.0303,-0.03,-0.0329,-0.0329,-0.0329,0,0,-0.0404,-0.0402,-0.0365,-0.0361,-0.0356,-0.0362,-0.0361,-0.0363,-0.0364,-0.034,-0.0361,-0.0363,-0.0324,-0.0323,-0.0316,-0.0288,-0.0295,-0.0284,-0.025,-0.0264,-0.0262,-0.026,-0.0272,-0.0272,-0.0275,-0.0275,-0.0275,0,-0.0382,-0.0338,-0.035,-0.0321,-0.0312,-0.0349,-0.0316,-0.0317,-0.0311,-0.0305,-0.0326,-0.031,-0.0311,-0.0282,-0.0282,-0.028,-0.0289,-0.0259,-0.026,-0.0258,-0.0257,-0.027,-0.027,-0.0274,-0.0274,-0.0274,-0.0274,0,-0.0301,-0.0277,-0.0255,-0.0233,-0.0223,-0.0202,-0.0215,-0.021,-0.0229,-0.0236,-0.0225,-0.024,-0.0233,-0.024,-0.0248,-0.0235,-0.0246,-0.0262,-0.0266,-0.0252,-0.0268,-0.0268,-0.0271,-0.0272,-0.0272,-0.0273,0,0,-0.0227,-0.0204,-0.0196,-0.0183,-0.0181,-0.0164,-0.0142,-0.013,-0.0115,-0.0135,-0.0114,-0.0126,-0.0159,-0.0155,-0.0179,-0.0192,-0.0203,-0.0217,-0.0218,-0.0225,-0.0229,-0.0247,-0.0249,-0.0217,-0.0217,-0.0217,-0.0244,0,-0.0163,-0.0104,-0.0103,-0.0053,-0.0033,-0.0058,-0.0029,-0.0029,-0.0039,-0.0028,-0.0072,-0.0063,-0.0118,-0.0119,-0.0144,-0.0182,-0.0201,-0.0193,-0.0244,-0.0245,-0.0259,-0.0249,-0.0236,-0.0259,-0.0245,-0.0245,-0.0245,0,-0.0083,-0.006,-0.0002,0.002,0.0031,0.0055,0.0078,0.0097,0.009,0.0082,0.0062,0.0029,0.0004,-0.0051,-0.0115,-0.0106,-0.0164,-0.0204,-0.0206,-0.0231,-0.0263,-0.027,-0.0261,-0.042,-0.0246,-0.0246,-0.0246,0,-0.0035,0.0012,0.0056,0.0064,0.0086,0.011,0.012,0.0128,0.0157,0.0144,0.0161,0.0112,0.0099,0.0019,-0.0077,-0.0092,-0.015,-0.0182,-0.0254,-0.0256,-0.0258,-0.026,-0.0403,-0.0233,-0.0232,-0.0232,-0.0232,0,0.0026,0.006,0.0077,0.0097,0.0152,0.0151,0.0209,0.0209,0.0233,0.0278,0.0214,0.0241,0.0116,0.0067,-0.004,-0.0142,-0.0125,-0.0241,-0.0262,-0.0247,-0.0248,-0.0397,-0.0481,-0.0233,-0.0233,-0.0233,-0.0233,0,0.0069,0.0082,0.0127,0.0157,0.0173,0.0206,0.0262,0.0307,0.0313,0.0371,0.0372,0.0345,0.028,0.0154,0.0034,-0.0079,-0.0275,-0.0229,-0.0205,-0.0222,-0.0443,-0.0524,-0.0674,-0.0762,-0.031,-0.0311,-0.0311,0,0.0096,0.0122,0.0165,0.0199,0.0215,0.0264,0.0312,0.0338,0.0397,0.0442,0.0487,0.0445,0.0447,0.026,0.0049,-0.0134,-0.0286,-0.0257,-0.0293,-0.045,-0.0555,-0.0624,-0.0692,-0.0284,-0.0284,-0.0285,-0.0285,0,0.0137,0.015,0.0186,0.0252,0.0306,0.0376,0.0444,0.0506,0.0552,0.0612,0.0689,0.0695,0.0516,0.0354,0.0083,-0.0066,-0.0378,-0.0267,-0.0435,-0.0549,-0.0626,-0.0721,-0.0277,-0.0286,-0.0286,-0.0286,-0.0286,-0.0286,0.0168,0.0201,0.0251,0.032,0.0386,0.0488,0.0567,0.066,0.077,0.0892,0.087,0.0947,0.0662,0.0306,0.0044,-0.0394,-0.0407,-0.0515,-0.0598,-0.0653,-0.0747,-0.0308,-0.034,-0.034,-0.034,-0.034,-0.034,0,0.0211,0.0256,0.032,0.0414,0.0505,0.0529,0.0667,0.0767,0.0919,0.1051,0.1139,0.1123,0.0727,0.032,-0.0269,-0.0632,-0.0793,-0.0837,-0.0939,-0.0994,-0.06,-0.0609,-0.0695,-0.0695,-0.0695,-0.0695,-0.0695,-0.0695,0.0241,0.0313,0.035,0.0506,0.058,0.0725,0.0815,0.0958,0.1094,0.1318,0.1457,0.1531,0.1278,0.0098,-0.0734,-0.0953,-0.122,-0.1285,-0.1432,-0.1169,-0.1146,-0.1123,-0.1154,-0.1352,-0.1353,-0.1789,-0.1793,-0.1796]}],[{"header":{"parameterUnit":"m.s-1","parameterCategory":2,"la1":30.2991,"la2":30.254,"lo1":-89.0895,"lo2":-89.0444,"dy":0.0017,"dx":0.0017,"nx":28,"ny":28,"refTime":"2023-10-14T09:00:00:Z","depth":"2","parameterNumber":2,"parameterNumberName":"U-component_of_CURRENTS"},"data":[0,0,0,0,0,0,0,0,0,0,0,0,0,0,0,0,0,0,0,0,0,0,0,0,0,0,0,0,0,0,0,0,0,0,0,0,0,0,0,0,0,0,0,0,0,0,0,0,0,0,0,0,0,0,0,0,0,0,0.1489,0.149,0,0.1521,0.1521,0.1522,0.15,0.15,0.1499,0.1498,0.1573,0.1576,0.1579,0,0,0,0,0,0,0,0,0,0,0,0,0,0.1398,0.14,0.1489,0.149,0.149,0.1521,0.1521,0.1522,0.1501,0.1499,0.1498,0.1497,0.1572,0.1576,0.1579,0,0,0,0,0,0,0,0,0,0,0,0,0,0.1434,0.14,0.1489,0.1484,0.1484,0.1521,0.1521,0.1522,0.1501,0.1499,0.1498,0.1497,0.1571,0.1575,0.1579,0.1631,0,0,0.1592,0.1594,0,0,0,0,0,0,0,0,0.1432,0.1437,0.1484,0.1485,0.1485,0.1506,0.1517,0.1561,0.1501,0.1493,0.1498,0.1496,0.1557,0.1562,0.1569,0.1635,0.1638,0.1593,0.1595,0.1597,0.1598,0,0,0,0,0,0,0,0.1429,0.1435,0.15,0.1485,0.1485,0.1477,0.148,0.1525,0.1532,0.1494,0.1493,0.1499,0.1557,0.1564,0.157,0.1639,0.1593,0.1596,0.1599,0.1601,0.1764,0.1766,0,0,0,0,0,0,0.143,0.1433,0.1499,0.1502,0.1456,0.1479,0.1483,0.15,0.153,0.1534,0.15,0.1497,0.1558,0.1565,0.1573,0.1646,0.1597,0.1601,0.1603,0.1763,0.1765,0.1767,0,0,0,0,0,0,0.1428,0.1436,0.1498,0.1468,0.1475,0.1483,0.1501,0.1501,0.1508,0.1534,0.1538,0.1506,0.1557,0.1567,0.1627,0.1649,0.1603,0.1607,0.176,0.1763,0.1766,0.1787,0,0,0,0,0,0,0.1426,0.1436,0.1446,0.1469,0.1477,0.1524,0.1502,0.1503,0.1515,0.1512,0.1542,0.1547,0.1557,0.162,0.1631,0.1654,0.161,0.1758,0.1762,0.1765,0.1784,0.179,0.1795,0,0,0,0,0,0.1423,0.1436,0.1447,0.1454,0.1492,0.1525,0.1529,0.1528,0.1516,0.1528,0.1555,0.1546,0.1649,0.1626,0.1638,0.1662,0.1756,0.1761,0.1765,0.1782,0.1789,0.1795,0,0,0,0,0,0,0.1395,0.1436,0.1448,0.1472,0.1501,0.1522,0.1529,0.1535,0.1563,0.1561,0.1579,0.1588,0.1646,0.166,0.1634,0.172,0.1698,0.1705,0.1707,0.1715,0.172,0.1716,0.1613,0,0,0,0,0,0.14,0.142,0.1461,0.1479,0.1497,0.1517,0.1529,0.1535,0.1564,0.1573,0.1598,0.1631,0.1674,0.1697,0.1735,0.1791,0.1805,0.1813,0.1819,0.1823,0.183,0.1872,0.1882,0.178,0.178,0.178,0,0,0.1388,0.1417,0.1425,0.1475,0.1495,0.1533,0.152,0.1545,0.1577,0.1581,0.1632,0.1657,0.1696,0.1752,0.1779,0.1765,0.1862,0.1829,0.1832,0.1836,0.1877,0.1887,0.1896,0.1783,0.1782,0.1782,0,0,0.139,0.1412,0.1438,0.1471,0.1514,0.1537,0.1548,0.1585,0.16,0.1661,0.1668,0.1708,0.1777,0.1802,0.1826,0.1892,0.1893,0.1902,0.1927,0.1968,0.1977,0.1984,0.2019,0.2029,0.1902,0.1902,0.1902,0,0.1375,0.1423,0.1448,0.1491,0.1516,0.1543,0.158,0.1613,0.1663,0.1685,0.1682,0.1775,0.1801,0.1867,0.1887,0.1903,0.1925,0.1893,0.1974,0.1981,0.1989,0.2022,0.2033,0.1904,0.1904,0.1904,0.1903,0,0.1411,0.1448,0.1465,0.1532,0.1562,0.1596,0.1649,0.1683,0.1707,0.1737,0.1804,0.1842,0.189,0.1907,0.1921,0.1986,0.1986,0.1975,0.195,0.2,0.2033,0.2044,0.1906,0.1906,0.1905,0.1905,0,0,0.1392,0.1473,0.1482,0.1513,0.1587,0.1613,0.1676,0.1739,0.1775,0.1826,0.1877,0.1943,0.1947,0.1975,0.199,0.2027,0.2096,0.2025,0.2026,0.2048,0.219,0.2149,0.2156,0.2098,0.21,0.2102,0.2193,0,0.1417,0.1483,0.1526,0.1588,0.1625,0.1671,0.1726,0.1782,0.183,0.189,0.193,0.1988,0.1979,0.2002,0.2039,0.2092,0.2126,0.2072,0.2149,0.2151,0.2098,0.2168,0.2042,0.2109,0.2204,0.2206,0.2207,0,0.1454,0.1491,0.1546,0.1614,0.1636,0.1675,0.175,0.1804,0.1892,0.1932,0.1986,0.2022,0.2097,0.2073,0.2175,0.2143,0.2168,0.2197,0.2201,0.2162,0.2131,0.2076,0.2126,0.2225,0.2224,0.2223,0.2221,0,0.1429,0.1511,0.1545,0.1571,0.1653,0.168,0.1725,0.1807,0.1866,0.1956,0.2011,0.2083,0.2145,0.2187,0.2241,0.222,0.2346,0.2319,0.2302,0.23,0.2207,0.2192,0.238,0.238,0.238,0.238,0.2379,0,0.1447,0.1474,0.1531,0.155,0.1593,0.1655,0.1716,0.1773,0.1876,0.1952,0.202,0.2094,0.218,0.2256,0.2275,0.2332,0.2372,0.2326,0.2328,0.2212,0.2197,0.2303,0.2293,0.2383,0.2382,0.2381,0.2381,0,0.1412,0.1457,0.149,0.1557,0.158,0.1602,0.1708,0.1761,0.186,0.1964,0.2002,0.2142,0.2236,0.2301,0.2394,0.2388,0.2431,0.2428,0.2285,0.2267,0.2348,0.2338,0.2435,0.2435,0.2434,0.2434,0.2434,0,0.1395,0.1409,0.1465,0.1487,0.1514,0.1569,0.1617,0.1732,0.1804,0.1983,0.2036,0.2172,0.2242,0.2366,0.24,0.2438,0.2437,0.2321,0.225,0.2366,0.2358,0.2349,0.234,0.2142,0.214,0.2138,0.2136,0,0.1351,0.1366,0.1393,0.1437,0.148,0.1539,0.162,0.1684,0.1831,0.1927,0.2056,0.2124,0.2255,0.2258,0.2318,0.2311,0.2305,0.2278,0.246,0.2139,0.2095,0.2085,0.2085,0.2116,0.2118,0.212,0.2121,0.2122,0.1304,0.1308,0.1351,0.1396,0.1443,0.1509,0.156,0.1671,0.1781,0.1897,0.1974,0.2017,0.2099,0.2124,0.2095,0.2098,0.2238,0.2152,0.2157,0.2165,0.2106,0.2062,0.2067,0.2069,0.207,0.2072,0.2073,0,0.1263,0.1287,0.1317,0.1378,0.142,0.1462,0.1568,0.1603,0.1717,0.1792,0.1849,0.1729,0.1777,0.1836,0.1843,0.1878,0.1838,0.1787,0.1728,0.1752,0.1772,0.1689,0.1542,0.1539,0.1537,0.1534,0,0,0.1243,0.1264,0.1292,0.1351,0.1392,0.1441,0.1495,0.1523,0.1583,0.1564,0.1567,0.1656,0.1798,0.162,0.1647,0.1594,0.1638,0.1537,0.1981,0.1937,0.1952,0.2025,0.193,0,0,0,0,0]},{"header":{"parameterUnit":"m.s-1","parameterCategory":2,"la1":30.2991,"la2":30.254,"lo1":-89.0895,"lo2":-89.0444,"dy":0.0017,"dx":0.0017,"nx":28,"ny":28,"refTime":"2023-10-14T09:00:00:Z","depth":"2","parameterNumber":3,"parameterNumberName":"V-component_of_CURRENTS"},"data":[0,0,0,0,0,0,0,0,0,0,0,0,0,0,0,0,0,0,0,0,0,0,0,0,0,0,0,0,0,0,0,0,0,0,0,0,0,0,0,0,0,0,0,0,0,0,0,0,0,0,0,0,0,0,0,0,0,0,-0.0132,-0.0132,0,-0.0178,-0.0178,-0.0179,-0.0239,-0.024,-0.0241,-0.0241,-0.0296,-0.0296,-0.0297,0,0,0,0,0,0,0,0,0,0,0,0,0,-0.0109,-0.0109,-0.0132,-0.0132,-0.0133,-0.0178,-0.0178,-0.0179,-0.0238,-0.024,-0.0241,-0.0242,-0.0295,-0.0296,-0.0297,0,0,0,0,0,0,0,0,0,0,0,0,0,-0.0133,-0.0109,-0.0132,-0.0168,-0.0171,-0.0177,-0.0178,-0.0179,-0.0238,-0.024,-0.0241,-0.0242,-0.0295,-0.0296,-0.0297,-0.0273,0,0,-0.0299,-0.03,0,0,0,0,0,0,0,0,-0.0132,-0.0134,-0.0162,-0.0165,-0.0169,-0.0204,-0.019,-0.0211,-0.0238,-0.0213,-0.0241,-0.0243,-0.0264,-0.0268,-0.0273,-0.0276,-0.0278,-0.0299,-0.03,-0.03,-0.03,0,0,0,0,0,0,0,-0.013,-0.0132,-0.015,-0.0162,-0.0167,-0.0186,-0.0191,-0.0194,-0.023,-0.0215,-0.022,-0.0224,-0.0267,-0.0273,-0.0275,-0.0279,-0.0299,-0.03,-0.0301,-0.0301,-0.0314,-0.0313,0,0,0,0,0,0,-0.0121,-0.013,-0.0149,-0.0152,-0.0153,-0.0185,-0.0191,-0.0191,-0.023,-0.0238,-0.0223,-0.0227,-0.027,-0.0274,-0.0277,-0.0282,-0.03,-0.0301,-0.0301,-0.0314,-0.0314,-0.0313,0,0,0,0,0,0,-0.012,-0.0122,-0.0147,-0.0142,-0.0147,-0.0184,-0.0184,-0.0192,-0.0209,-0.0236,-0.0244,-0.0234,-0.0272,-0.0276,-0.0297,-0.0284,-0.0301,-0.0302,-0.0314,-0.0314,-0.0313,-0.0273,0,0,0,0,0,0,-0.0119,-0.0121,-0.0123,-0.0141,-0.0147,-0.0152,-0.0183,-0.0191,-0.0209,-0.0215,-0.0248,-0.0254,-0.0273,-0.0296,-0.0298,-0.0285,-0.0303,-0.0314,-0.0314,-0.0314,-0.0274,-0.0271,-0.0268,0,0,0,0,0,-0.0118,-0.0111,-0.0122,-0.0125,-0.0146,-0.0151,-0.0156,-0.0187,-0.0208,-0.021,-0.0243,-0.0253,-0.0296,-0.0297,-0.0299,-0.0286,-0.0314,-0.0314,-0.0314,-0.0275,-0.0272,-0.0268,0,0,0,0,0,0,-0.0099,-0.0117,-0.013,-0.0128,-0.014,-0.0162,-0.017,-0.0185,-0.0211,-0.0225,-0.0252,-0.026,-0.0272,-0.0286,-0.0286,-0.029,-0.0305,-0.0305,-0.0276,-0.0272,-0.0269,-0.0257,-0.0303,0,0,0,0,0,-0.0094,-0.0098,-0.0113,-0.0113,-0.012,-0.0144,-0.0153,-0.0171,-0.0194,-0.0208,-0.0232,-0.0257,-0.0268,-0.0278,-0.0293,-0.0292,-0.0306,-0.0286,-0.0283,-0.028,-0.0273,-0.0289,-0.0287,-0.0312,-0.0312,-0.0312,0,0,-0.0084,-0.0097,-0.0098,-0.011,-0.0126,-0.0125,-0.0154,-0.0166,-0.0167,-0.0207,-0.0225,-0.0247,-0.0267,-0.0273,-0.0279,-0.0285,-0.0281,-0.0279,-0.0277,-0.0271,-0.0288,-0.0286,-0.0283,-0.0312,-0.0312,-0.0312,0,0,-0.0064,-0.0081,-0.0077,-0.0085,-0.0106,-0.0118,-0.012,-0.0143,-0.016,-0.0174,-0.0203,-0.0223,-0.0242,-0.0255,-0.0262,-0.025,-0.0266,-0.0251,-0.0223,-0.0239,-0.0236,-0.0235,-0.0249,-0.0249,-0.0247,-0.0247,-0.0247,0,-0.0053,-0.005,-0.0075,-0.0074,-0.0076,-0.0111,-0.0101,-0.0116,-0.0145,-0.0148,-0.0178,-0.0207,-0.0233,-0.0227,-0.023,-0.0242,-0.0253,-0.0233,-0.0234,-0.0233,-0.0232,-0.0247,-0.0247,-0.0245,-0.0246,-0.0246,-0.0246,0,-0.003,-0.003,-0.0029,-0.0039,-0.0042,-0.0042,-0.0061,-0.0071,-0.0097,-0.0111,-0.0124,-0.0165,-0.0179,-0.0189,-0.0209,-0.0203,-0.0214,-0.0229,-0.024,-0.0226,-0.0244,-0.0245,-0.0242,-0.0243,-0.0244,-0.0244,0,0,0.0002,-0.0009,-0.0009,-0.0003,-0.0023,-0.0019,-0.0021,-0.0022,-0.0011,-0.0057,-0.0045,-0.0087,-0.0111,-0.0121,-0.0146,-0.0165,-0.0176,-0.019,-0.0192,-0.0199,-0.0207,-0.0233,-0.0237,-0.0189,-0.0189,-0.0189,-0.0222,0,0.0028,0.0044,0.0032,0.0053,0.0061,0.0038,0.005,0.0041,0.0024,0.0024,-0.0023,-0.0028,-0.0082,-0.0085,-0.0114,-0.0153,-0.0177,-0.0166,-0.0223,-0.0225,-0.0246,-0.0239,-0.0212,-0.024,-0.0223,-0.0223,-0.0223,0,0.0058,0.0062,0.0088,0.0105,0.0109,0.0119,0.0135,0.014,0.0129,0.0116,0.0092,0.0059,0.0028,-0.0024,-0.0094,-0.0082,-0.0142,-0.0184,-0.0186,-0.0224,-0.0254,-0.0252,-0.0243,-0.0225,-0.0225,-0.0225,-0.0225,0,0.0096,0.0109,0.0133,0.0135,0.0145,0.0158,0.0164,0.0167,0.019,0.0174,0.0189,0.0136,0.0121,0.0039,-0.0063,-0.0073,-0.0144,-0.0167,-0.0249,-0.0252,-0.0247,-0.0249,-0.0222,-0.0222,-0.0222,-0.0222,-0.0222,0,0.0136,0.0154,0.0152,0.0164,0.0204,0.0196,0.0244,0.0241,0.0262,0.0305,0.0239,0.0258,0.0137,0.0079,-0.0029,-0.0141,-0.0122,-0.0241,-0.0261,-0.0233,-0.0234,-0.0237,-0.0238,-0.0223,-0.0223,-0.0223,-0.0223,0,0.0175,0.0174,0.0199,0.0211,0.0222,0.0246,0.0294,0.0337,0.0341,0.0395,0.0396,0.0357,0.0277,0.0149,0.0021,-0.0084,-0.0197,-0.0246,-0.0208,-0.0223,-0.0303,-0.0301,-0.033,-0.0331,-0.0332,-0.0333,-0.0334,0,0.02,0.0214,0.0231,0.0255,0.0262,0.03,0.0344,0.0367,0.0422,0.0459,0.0499,0.0441,0.041,0.0206,0.0009,-0.0179,-0.0207,-0.0278,-0.0301,-0.0296,-0.0313,-0.031,-0.0308,-0.0277,-0.0277,-0.0278,-0.0278,0,0.0237,0.0235,0.0256,0.0305,0.0347,0.0406,0.0467,0.0519,0.0564,0.0615,0.0661,0.0638,0.0444,0.0258,-0.0007,-0.0135,-0.0248,-0.0288,-0.0283,-0.0259,-0.0251,-0.0266,-0.0264,-0.0279,-0.0279,-0.0279,-0.0279,-0.0279,0.0261,0.0282,0.0311,0.0364,0.042,0.0504,0.0569,0.0649,0.074,0.0823,0.0782,0.0766,0.0539,0.0212,-0.0031,-0.0273,-0.0264,-0.0338,-0.0336,-0.0334,-0.0327,-0.0321,-0.0361,-0.0361,-0.0361,-0.0362,-0.0362,0,0.0294,0.0322,0.0374,0.0442,0.0522,0.0546,0.066,0.0744,0.0862,0.0914,0.0948,0.0754,0.0525,0.0265,-0.0099,-0.0326,-0.0334,-0.0388,-0.0347,-0.0344,-0.0341,-0.0334,-0.0371,-0.0372,-0.0372,-0.0373,0,0,0.0313,0.0366,0.0398,0.0523,0.0584,0.0711,0.0783,0.0902,0.0978,0.1032,0.1024,0.0961,0.0633,0.0371,0.0054,-0.0157,-0.0193,-0.0193,-0.016,-0.007,-0.0064,-0.0286,-0.0267,0,0,0,0,0]}],[{"header":{"parameterUnit":"m.s-1","parameterCategory":2,"la1":30.2991,"la2":30.254,"lo1":-89.0895,"lo2":-89.0444,"dy":0.0017,"dx":0.0017,"nx":28,"ny":28,"refTime":"2023-10-14T09:00:00:Z","depth":"4","parameterNumber":2,"parameterNumberName":"U-component_of_CURRENTS"},"data":[0,0,0,0,0,0,0,0,0,0,0,0,0,0,0,0,0,0,0,0,0,0,0,0,0,0,0,0,0,0,0,0,0,0,0,0,0,0,0,0,0,0,0,0,0,0,0,0,0,0,0,0,0,0,0,0,0,0,0.0803,0.0804,0,0.0837,0.0837,0.0837,0.0873,0.0874,0.0874,0.0875,0.0899,0.09,0.09,0,0,0,0,0,0,0,0,0,0,0,0,0,0.0769,0.0769,0.0803,0.0804,0.0804,0.0837,0.0837,0.0838,0.0873,0.0874,0.0874,0.0875,0.0899,0.09,0.09,0,0,0,0,0,0,0,0,0,0,0,0,0,0.0791,0.0769,0.0803,0.0826,0.0828,0.0836,0.0837,0.0838,0.0873,0.0874,0.0875,0.0875,0.0899,0.09,0.09,0.0887,0,0,0.0901,0.0901,0,0,0,0,0,0,0,0,0.079,0.0792,0.0822,0.0824,0.0827,0.0851,0.0834,0.0854,0.0873,0.0856,0.0875,0.0876,0.0882,0.0884,0.0889,0.0888,0.0889,0.0901,0.0901,0.0901,0.0901,0,0,0,0,0,0,0,0.0788,0.0791,0.0817,0.0822,0.0825,0.0833,0.0837,0.0838,0.0865,0.0858,0.086,0.0864,0.0883,0.0888,0.089,0.089,0.0901,0.0901,0.0901,0.0901,0.0946,0.0947,0,0,0,0,0,0,0.0783,0.079,0.0816,0.0818,0.081,0.0833,0.0838,0.0843,0.0865,0.0869,0.0863,0.0865,0.0888,0.0889,0.0891,0.0946,0.0901,0.0901,0.0902,0.0945,0.0947,0.0948,0,0,0,0,0,0,0.0782,0.0785,0.0814,0.0804,0.0809,0.0833,0.0839,0.0843,0.0879,0.0869,0.0873,0.0897,0.0888,0.089,0.0923,0.0944,0.0902,0.0902,0.0944,0.0946,0.0947,0.1012,0,0,0,0,0,0,0.0781,0.0785,0.0798,0.0804,0.0809,0.0837,0.0838,0.0843,0.0877,0.0881,0.0898,0.09,0.0889,0.0923,0.0923,0.0944,0.0902,0.0943,0.0945,0.0947,0.1008,0.1015,0.1021,0,0,0,0,0,0.078,0.0788,0.0798,0.0802,0.0823,0.0838,0.0842,0.0861,0.0878,0.0896,0.0916,0.0901,0.0934,0.0924,0.0924,0.0946,0.0942,0.0944,0.0947,0.1005,0.1014,0.1021,0,0,0,0,0,0,0.078,0.0793,0.0804,0.0817,0.0837,0.0845,0.0866,0.088,0.0909,0.0921,0.0918,0.0921,0.0954,0.0943,0.0931,0.0963,0.0934,0.0936,0.0978,0.0986,0.0992,0.0992,0.0902,0,0,0,0,0,0.0785,0.08,0.0812,0.0829,0.0842,0.0862,0.0876,0.0888,0.0908,0.0924,0.0936,0.0947,0.0957,0.0969,0.097,0.0994,0.0988,0.1006,0.1012,0.1018,0.1017,0.1024,0.1031,0.0955,0.0955,0.0955,0,0,0.0792,0.0801,0.0812,0.0831,0.0851,0.0869,0.0874,0.0903,0.0921,0.0919,0.0961,0.0971,0.0968,0.0994,0.1006,0.0993,0.1043,0.1021,0.1025,0.1022,0.1027,0.1034,0.1041,0.0957,0.0956,0.0956,0,0,0.0804,0.0824,0.084,0.0856,0.0884,0.0893,0.0909,0.0934,0.0955,0.099,0.0993,0.1022,0.104,0.1042,0.1044,0.1086,0.1075,0.109,0.1127,0.1134,0.114,0.1145,0.1176,0.1183,0.1096,0.1096,0.1096,0,0.0805,0.0833,0.0849,0.0865,0.0881,0.0909,0.0929,0.0949,0.0982,0.1002,0.1012,0.1056,0.1058,0.1084,0.1104,0.11,0.1112,0.1099,0.1142,0.1147,0.1151,0.1181,0.1188,0.11,0.1099,0.1099,0.1098,0,0.0828,0.0854,0.0869,0.0899,0.0916,0.0941,0.0962,0.0996,0.1029,0.1046,0.1093,0.1105,0.1132,0.1139,0.1139,0.1173,0.1177,0.1149,0.1123,0.1163,0.1192,0.1198,0.1104,0.1103,0.1102,0.1101,0,0,0.0813,0.0871,0.0879,0.0899,0.0936,0.0948,0.0989,0.1026,0.1061,0.1099,0.114,0.1171,0.1192,0.1196,0.1202,0.1214,0.1268,0.1206,0.1205,0.1238,0.1312,0.1283,0.1287,0.1253,0.1253,0.1254,0.133,0,0.0829,0.0862,0.0889,0.0929,0.0949,0.0984,0.1018,0.1053,0.1093,0.1139,0.1165,0.1206,0.1208,0.1237,0.1252,0.1264,0.1284,0.1252,0.1266,0.1267,0.1236,0.1292,0.1257,0.1335,0.1336,0.1337,0.1338,0,0.084,0.0863,0.09,0.0947,0.0961,0.0993,0.1052,0.1083,0.1145,0.118,0.1228,0.125,0.1301,0.1282,0.1333,0.1319,0.1325,0.1325,0.1327,0.1277,0.1248,0.1279,0.1349,0.1348,0.1347,0.1346,0.1346,0,0.0818,0.0867,0.0898,0.0914,0.0971,0.1008,0.1047,0.1107,0.1139,0.1214,0.1256,0.1304,0.1353,0.136,0.1396,0.1369,0.1443,0.1394,0.1372,0.1371,0.1344,0.1337,0.1411,0.1411,0.1411,0.1411,0.141,0,0.0809,0.0835,0.0899,0.0919,0.0962,0.1005,0.106,0.1111,0.118,0.1226,0.1284,0.1332,0.1376,0.1426,0.1423,0.1445,0.1471,0.1393,0.1388,0.1374,0.1369,0.1351,0.1343,0.1414,0.1413,0.1412,0.1412,0,0.0771,0.0818,0.0856,0.093,0.0956,0.0986,0.1066,0.11,0.1185,0.1249,0.1281,0.1378,0.146,0.1501,0.1535,0.1493,0.1497,0.149,0.1518,0.151,0.1411,0.1406,0.1459,0.1459,0.1458,0.1458,0.1458,0,0.075,0.0769,0.0852,0.0878,0.092,0.0973,0.1011,0.1096,0.1132,0.1269,0.1296,0.1417,0.1475,0.1512,0.1554,0.157,0.154,0.1531,0.1426,0.1427,0.1416,0.1411,0.1406,0.1457,0.1457,0.1457,0.1457,0,0.0707,0.0751,0.0785,0.0839,0.0889,0.0923,0.0993,0.1012,0.1116,0.1203,0.1285,0.134,0.1443,0.1486,0.1535,0.1526,0.1526,0.1526,0.1525,0.1425,0.1425,0.1414,0.1409,0.1456,0.1456,0.1456,0.1456,0,0.0678,0.0689,0.0747,0.0785,0.0839,0.0868,0.0908,0.0966,0.1016,0.1166,0.1197,0.133,0.1433,0.1467,0.1502,0.1517,0.147,0.1386,0.139,0.1392,0.1337,0.1325,0.1333,0,0,0,0,0,0.0632,0.0644,0.0684,0.0727,0.0776,0.0812,0.089,0.0931,0.1035,0.1066,0.1127,0.1216,0.1302,0.1368,0.137,0.1472,0.1472,0.1466,0.1376,0.1449,0.145,0.1392,0,0,0,0,0,0,0.0606,0.0638,0.0662,0.0671,0.0687,0.0735,0.0784,0.0857,0.0876,0.0993,0.1046,0.1141,0.124,0.1292,0.1345,0.1366,0.1284,0.1548,0.1545,0.1448,0.145,0.1451,0.1391,0,0,0,0,0]},{"header":{"parameterUnit":"m.s-1","parameterCategory":2,"la1":30.2991,"la2":30.254,"lo1":-89.0895,"lo2":-89.0444,"dy":0.0017,"dx":0.0017,"nx":28,"ny":28,"refTime":"2023-10-14T09:00:00:Z","depth":"4","parameterNumber":3,"parameterNumberName":"V-component_of_CURRENTS"},"data":[0,0,0,0,0,0,0,0,0,0,0,0,0,0,0,0,0,0,0,0,0,0,0,0,0,0,0,0,0,0,0,0,0,0,0,0,0,0,0,0,0,0,0,0,0,0,0,0,0,0,0,0,0,0,0,0,0,0,0.0106,0.0106,0,0.0069,0.0068,0.0068,0.0049,0.0049,0.0049,0.0049,-0.0011,-0.0013,-0.0015,0,0,0,0,0,0,0,0,0,0,0,0,0,0.013,0.013,0.0106,0.0106,0.0105,0.0069,0.0068,0.0068,0.0049,0.0049,0.0049,0.0049,-0.0011,-0.0013,-0.0015,0,0,0,0,0,0,0,0,0,0,0,0,0,0.0109,0.013,0.0106,0.0092,0.009,0.0069,0.0068,0.0068,0.0049,0.0049,0.0049,0.0049,-0.001,-0.0013,-0.0015,-0.0031,0,0,-0.0022,-0.0023,0,0,0,0,0,0,0,0,0.011,0.0108,0.0094,0.0093,0.0091,0.0064,0.0055,0.0034,0.0049,0.0064,0.0049,0.0049,0.0012,0.0008,0.0,-0.0033,-0.0036,-0.0023,-0.0024,-0.0025,-0.0026,0,0,0,0,0,0,0,0.0111,0.0109,0.0091,0.0094,0.0092,0.0077,0.0074,0.0051,0.0037,0.0063,0.0061,0.0058,0.0011,0.0003,-0.0001,-0.0037,-0.0023,-0.0025,-0.0026,-0.0027,-0.0101,-0.0101,0,0,0,0,0,0,0.0119,0.0111,0.0092,0.009,0.0101,0.0076,0.0073,0.0072,0.0038,0.0033,0.0058,0.0057,0.0007,0.0001,-0.0004,-0.0028,-0.0025,-0.0027,-0.0029,-0.01,-0.0101,-0.0101,0,0,0,0,0,0,0.0119,0.0117,0.0094,0.01,0.0096,0.0076,0.0075,0.0071,0.0062,0.0035,0.0029,0.0052,0.0007,-0.0,-0.0028,-0.003,-0.0029,-0.0031,-0.01,-0.01,-0.0101,-0.0074,0,0,0,0,0,0,0.012,0.0118,0.012,0.01,0.0096,0.0084,0.0075,0.0071,0.006,0.0059,0.0028,0.0023,0.0006,-0.0024,-0.003,-0.0033,-0.0033,-0.0099,-0.01,-0.0101,-0.0074,-0.0073,-0.0073,0,0,0,0,0,0.0121,0.0126,0.012,0.0118,0.0099,0.0084,0.008,0.0066,0.006,0.0057,0.0033,0.0023,-0.0034,-0.0026,-0.0033,-0.0037,-0.0099,-0.01,-0.0101,-0.0074,-0.0073,-0.0073,0,0,0,0,0,0,0.0137,0.0124,0.0117,0.0118,0.0103,0.0081,0.0078,0.0066,0.0045,0.0043,0.0016,0.0009,-0.0017,-0.0033,-0.0024,-0.0063,-0.0068,-0.007,-0.0045,-0.0045,-0.0044,-0.0033,-0.0035,0,0,0,0,0,0.0142,0.0143,0.0124,0.0124,0.0119,0.0097,0.0089,0.0079,0.0058,0.0049,0.0026,-0.0001,-0.0028,-0.004,-0.0065,-0.0086,-0.0105,-0.0094,-0.0093,-0.0092,-0.0089,-0.0126,-0.0129,-0.0105,-0.0105,-0.0105,0,0,0.0147,0.0141,0.0141,0.0128,0.0116,0.0109,0.0093,0.0083,0.0076,0.0045,0.0027,-0.0001,-0.0034,-0.0057,-0.007,-0.007,-0.011,-0.0094,-0.0093,-0.009,-0.0128,-0.013,-0.0132,-0.0106,-0.0106,-0.0105,0,0,0.0158,0.0154,0.0157,0.0147,0.0132,0.0119,0.0116,0.0093,0.0082,0.006,0.0034,0.0005,-0.0032,-0.0056,-0.0073,-0.0086,-0.0108,-0.0096,-0.008,-0.0117,-0.0119,-0.0121,-0.0146,-0.015,-0.0092,-0.0092,-0.0092,0,0.0166,0.0166,0.0154,0.0153,0.0148,0.0125,0.0123,0.0108,0.0078,0.0068,0.0059,-0.0004,-0.0031,-0.0064,-0.0068,-0.0084,-0.0105,-0.0077,-0.0115,-0.0117,-0.012,-0.0145,-0.015,-0.0091,-0.0091,-0.0091,-0.0091,0,0.0174,0.0176,0.0177,0.0169,0.0161,0.0158,0.0137,0.0126,0.0109,0.009,0.0054,0.0014,-0.0022,-0.0038,-0.0056,-0.0089,-0.0098,-0.0111,-0.0112,-0.012,-0.0147,-0.0153,-0.0089,-0.009,-0.009,-0.009,0,0,0.0187,0.0185,0.0185,0.0188,0.0171,0.0167,0.0157,0.0139,0.0134,0.0098,0.0081,0.0031,0.0007,-0.0014,-0.0046,-0.0077,-0.0113,-0.0097,-0.01,-0.0114,-0.0188,-0.0168,-0.0173,-0.0134,-0.0135,-0.0136,-0.0197,0,0.0196,0.0206,0.0198,0.0204,0.0206,0.0188,0.0182,0.0164,0.0143,0.0121,0.0075,0.0046,0.0017,-0.0001,-0.0038,-0.0097,-0.0128,-0.0095,-0.0185,-0.0187,-0.0162,-0.0179,-0.0139,-0.0202,-0.0203,-0.0204,-0.0205,0,0.0202,0.0211,0.0223,0.0228,0.0227,0.0226,0.0218,0.0209,0.0174,0.0155,0.0116,0.0081,0.0028,0.0006,-0.0093,-0.0071,-0.0125,-0.0169,-0.0173,-0.0167,-0.0178,-0.0195,-0.0216,-0.0215,-0.0214,-0.0214,-0.0213,0,0.0219,0.0227,0.0242,0.0243,0.0242,0.0245,0.0242,0.0219,0.022,0.0177,0.017,0.0097,0.0068,-0.0015,-0.0098,-0.0101,-0.0203,-0.022,-0.0254,-0.0253,-0.0263,-0.0261,-0.029,-0.029,-0.029,-0.029,-0.029,0,0.0231,0.0243,0.0255,0.0263,0.0283,0.027,0.0283,0.0267,0.0251,0.0256,0.0192,0.018,0.0061,-0.0004,-0.0092,-0.0184,-0.02,-0.0253,-0.027,-0.025,-0.0246,-0.0267,-0.0264,-0.0292,-0.0292,-0.0291,-0.0291,0,0.0244,0.0252,0.0273,0.0284,0.0292,0.0305,0.0322,0.0332,0.0309,0.0314,0.0305,0.0236,0.015,0.0038,-0.0095,-0.0162,-0.0261,-0.0289,-0.0249,-0.0263,-0.0291,-0.0285,-0.0341,-0.0341,-0.0341,-0.0341,-0.0341,0,0.0252,0.0264,0.0293,0.0315,0.0324,0.0347,0.0367,0.0359,0.0377,0.0356,0.0365,0.0289,0.0233,0.0067,-0.0064,-0.023,-0.0252,-0.0306,-0.0312,-0.0286,-0.0297,-0.0292,-0.0287,-0.034,-0.034,-0.034,-0.034,0,0.0263,0.0275,0.0293,0.0342,0.0374,0.0412,0.0442,0.046,0.0458,0.0441,0.0423,0.0332,0.0236,0.009,-0.0036,-0.0157,-0.0276,-0.0305,-0.0307,-0.0313,-0.0286,-0.0296,-0.0291,-0.034,-0.034,-0.034,-0.034,0,0.027,0.0287,0.0318,0.0362,0.0411,0.0464,0.0477,0.0503,0.0515,0.0496,0.049,0.0375,0.0303,0.0129,0.0012,-0.0105,-0.0142,-0.0186,-0.0194,-0.0196,-0.0138,-0.0081,-0.0087,0,0,0,0,0,0.027,0.0294,0.0337,0.0389,0.0443,0.0476,0.0525,0.0536,0.054,0.0541,0.0518,0.0432,0.0256,0.0175,0.0063,-0.0,-0.0172,-0.0137,-0.0228,-0.0338,-0.0338,-0.0293,0,0,0,0,0,0,0.0269,0.0307,0.0334,0.0408,0.0451,0.0515,0.0551,0.0558,0.056,0.0545,0.0458,0.0402,0.0233,0.0324,0.0061,0.0023,-0.0051,-0.0224,-0.0227,-0.0337,-0.0338,-0.0338,-0.0292,0,0,0,0,0]}]]